Estación de Lo Herrera
Ultimos registro cada 15 minutos 51
| N° | Estación | Fecha / Hora | Temperatura | Humedad | Lluvia | Velocidad | Dirección | Radiación | Presion |
| 51 | Lo Herrera | 04-09-2026 12:30 | 18,2 | 56 | 0 | 1,3 | 225 | 700 | 1018,9 |
| 50 | Lo Herrera | 04-09-2026 12:15 | 17,8 | 55 | 0 | 1,3 | 170 | 696 | 1019,2 |
| 49 | Lo Herrera | 04-09-2026 12:00 | 17,3 | 60 | 0 | 0,9 | 254 | 693 | 1019,3 |
| 48 | Lo Herrera | 04-09-2026 11:45 | 16,7 | 61 | 0 | 1,3 | 200 | 675 | 1019,5 |
| 47 | Lo Herrera | 04-09-2026 11:30 | 16,2 | 64 | 0 | 0,4 | 211 | 663 | 1019,8 |
| 46 | Lo Herrera | 04-09-2026 11:15 | 15,9 | 63 | 0 | 0,9 | 213 | 640 | 1020 |
| 45 | Lo Herrera | 04-09-2026 11:00 | 15,7 | 62 | 0 | 1,3 | 147 | 617 | 1020,4 |
| 44 | Lo Herrera | 04-09-2026 10:45 | 15,4 | 64 | 0 | 1,8 | 133 | 591 | 1020,5 |
| 43 | Lo Herrera | 04-09-2026 10:30 | 14,9 | 65 | 0 | 0,9 | 180 | 561 | 1020,5 |
| 42 | Lo Herrera | 04-09-2026 10:15 | 14,4 | 66 | 0 | 1,8 | 137 | 533 | 1020,6 |
| 41 | Lo Herrera | 04-09-2026 10:00 | 13,8 | 70 | 0 | 0,9 | 180 | 499 | 1020,8 |
| 40 | Lo Herrera | 04-09-2026 09:45 | 13,2 | 71 | 0 | 0,9 | 167 | 459 | 1021,1 |
| 39 | Lo Herrera | 04-09-2026 09:30 | 12,4 | 73 | 0 | 0,9 | 161 | 422 | 1021,1 |
| 38 | Lo Herrera | 04-09-2026 09:15 | 11,5 | 75 | 0 | 0,9 | 137 | 380 | 1021,1 |
| 37 | Lo Herrera | 04-09-2026 09:00 | 10,4 | 79 | 0 | 0,9 | 175 | 338 | 1021,1 |
| 36 | Lo Herrera | 04-09-2026 08:45 | 9,4 | 81 | 0 | 0,9 | 130 | 288 | 1021,1 |
| 35 | Lo Herrera | 04-09-2026 08:30 | 8,7 | 82 | 0 | 0,4 | 156 | 37 | 1021,2 |
| 34 | Lo Herrera | 04-09-2026 08:15 | 8,4 | 84 | 0 | 0 | 175 | 30 | 1021,1 |
| 33 | Lo Herrera | 04-09-2026 08:00 | 7,8 | 86 | 0 | 0,9 | 175 | 26 | 1021 |
| 32 | Lo Herrera | 04-09-2026 07:45 | 6,9 | 88 | 0 | 0,9 | 185 | 23 | 1020,8 |
| 31 | Lo Herrera | 04-09-2026 07:30 | 6,7 | 87 | 0 | 0 | 145 | 19 | 1020,9 |
| 30 | Lo Herrera | 04-09-2026 07:15 | 6,7 | 87 | 0 | 0 | 158 | 14 | 1020,8 |
| 29 | Lo Herrera | 04-09-2026 07:00 | 6,8 | 86 | 0 | 0 | 171 | 5 | 1020,6 |
| 28 | Lo Herrera | 04-09-2026 06:45 | 6,8 | 87 | 0 | 0,9 | 175 | 0 | 1020,6 |
| 27 | Lo Herrera | 04-09-2026 06:30 | 6,8 | 87 | 0 | 0,9 | 168 | 0 | 1020,7 |
| 26 | Lo Herrera | 04-09-2026 06:15 | 6,9 | 86 | 0 | 0 | 156 | 0 | 1020,6 |
| 25 | Lo Herrera | 04-09-2026 06:00 | 7,3 | 84 | 0 | 0,9 | 148 | 0 | 1020,5 |
| 24 | Lo Herrera | 04-09-2026 05:45 | 7,7 | 83 | 0 | 0,9 | 164 | 0 | 1020,7 |
| 23 | Lo Herrera | 04-09-2026 05:30 | 7,8 | 83 | 0 | 0,4 | 165 | 0 | 1020,7 |
| 22 | Lo Herrera | 04-09-2026 05:15 | 7,7 | 83 | 0 | 0,9 | 167 | 0 | 1020,6 |
| 21 | Lo Herrera | 04-09-2026 05:00 | 7,8 | 83 | 0 | 0,4 | 168 | 0 | 1020,5 |
| 20 | Lo Herrera | 04-09-2026 04:45 | 7,8 | 83 | 0 | 0,9 | 175 | 0 | 1020,4 |
| 19 | Lo Herrera | 04-09-2026 04:30 | 7,8 | 83 | 0 | 0,9 | 185 | 0 | 1020,4 |
| 18 | Lo Herrera | 04-09-2026 04:15 | 7,8 | 83 | 0 | 0,4 | 166 | 0 | 1020,4 |
| 17 | Lo Herrera | 04-09-2026 04:00 | 7,9 | 83 | 0 | 0,4 | 162 | 0 | 1020,5 |
| 16 | Lo Herrera | 04-09-2026 03:45 | 7,9 | 83 | 0 | 0,4 | 166 | 0 | 1020,4 |
| 15 | Lo Herrera | 04-09-2026 03:30 | 7,9 | 82 | 0 | 0,4 | 167 | 0 | 1020,6 |
| 14 | Lo Herrera | 04-09-2026 03:15 | 8,1 | 82 | 0 | 0 | 166 | 0 | 1020,5 |
| 13 | Lo Herrera | 04-09-2026 03:00 | 8,3 | 81 | 0 | 0,4 | 166 | 0 | 1020,6 |
| 12 | Lo Herrera | 04-09-2026 02:45 | 8,6 | 80 | 0 | 0 | 147 | 0 | 1020,8 |
| 11 | Lo Herrera | 04-09-2026 02:30 | 8,9 | 79 | 0 | 0,4 | 171 | 0 | 1021 |
| 10 | Lo Herrera | 04-09-2026 02:15 | 9,1 | 78 | 0 | 0,4 | 185 | 0 | 1021 |
| 9 | Lo Herrera | 04-09-2026 02:00 | 9,1 | 78 | 0 | 0,9 | 167 | 0 | 1021,3 |
| 8 | Lo Herrera | 04-09-2026 01:45 | 9,3 | 77 | 0 | 0,4 | 175 | 0 | 1021,4 |
| 7 | Lo Herrera | 04-09-2026 01:30 | 9,4 | 77 | 0 | 0,4 | 169 | 0 | 1021,5 |
| 6 | Lo Herrera | 04-09-2026 01:15 | 9,7 | 75 | 0 | 0,9 | 189 | 0 | 1021,4 |
| 5 | Lo Herrera | 04-09-2026 01:00 | 9,9 | 74 | 0 | 1,8 | 170 | 0 | 1021,5 |
| 4 | Lo Herrera | 04-09-2026 00:45 | 10,2 | 74 | 0 | 1,3 | 175 | 0 | 1021,8 |
| 3 | Lo Herrera | 04-09-2026 00:30 | 10,1 | 74 | 0 | 0,9 | 175 | 0 | 1021,8 |
| 2 | Lo Herrera | 04-09-2026 00:15 | 10,1 | 73 | 0 | 0,9 | 185 | 0 | 1021,8 |
| 1 | Lo Herrera | 04-09-2026 00:00 | 10,3 | 72 | 0 | 0,4 | 168 | 0 | 1021,9 |